Weather History for Sexton Summit, OR

Change the Weather History Date:

Tuesday, May 6, 2014

  Actual Average Record
Temperature  
Mean Temperature 41 °F -  
Max Temperature 53 °F 54 °F 68 °F (2001)
Min Temperature 34 °F 35 °F 28 °F (2002)
Degree Days  
Heating Degree Days 24    
Moisture  
Dew Point 36 °F    
Average Humidity 85    
Maximum Humidity 100    
Minimum Humidity 56    
Precipitation  
Precipitation 0.00 in - - ()
Sea Level Pressure  
Sea Level Pressure 30.04 in    
Wind  
Wind Speed 5 mph (North)    
Max Wind Speed 10 mph    
Max Gust Speed 18 mph    
Visibility 7 miles    
Events Fog    
Averages and records for this station are not official NWS values.
T = Trace of Precipitation, MM = Missing Value Source: NWS Daily Summary

Daily Weather History Graph

Daily Weather History Graph

Search for Another Location

Airport:

Trip Planner

Search our weather history database for the weather conditions in past years. The results will help you decide how hot, cold, wet, or windy it might be!

Date:

Astronomy

May. 06, 2014 Rise Set
Actual Time 6:01 AM PDT 8:19 PM PDT
Civil Twilight 5:30 AM PDT 8:50 PM PDT
Nautical Twilight 4:51 AM PDT 9:29 PM PDT
Astronomical Twilight 4:08 AM PDT 10:12 PM PDT
Moon 12:24 PM PDT (5/6) 1:40 AM PDT (5/6)
Length of Visible Light 15h 20m
Length of Day
14h 17m
Waxing Crescent, 47% of the Moon is Illuminated
May 6
Waxing Crescent
May 6
First Quarter
May 14
Full
May 21
Last Quarter
May 28
New

Hourly Weather History & Observations

Time (PDT) Temp. Windchill Dew Point Humidity Pressure Visibility Wind Dir Wind Speed Gust Speed Precip Events Conditions
12:02 AM 34.0 °F 31.0 °F 34.0 °F 100% 30.03 in 3.0 mi Variable 3.5 mph - N/A   Overcast
12:28 AM 34.0 °F 29.8 °F 33.1 °F 96% 30.02 in 2.5 mi Variable 4.6 mph - N/A   Overcast
12:37 AM 34.0 °F 28.8 °F 33.1 °F 96% 30.02 in 1.8 mi Variable 5.8 mph - N/A   Overcast
12:45 AM 34.0 °F 28.0 °F 34.0 °F 100% 30.02 in 0.8 mi Variable 6.9 mph - N/A   Mist
12:56 AM 34.0 °F 28.8 °F 34.0 °F 100% 30.05 in 0.5 mi Variable 5.8 mph - N/A Fog Fog
4:56 AM 34.0 °F - 34.0 °F 100% 30.04 in 0.5 mi Calm Calm - N/A Fog Fog
5:56 AM 34.0 °F 27.2 °F 34.0 °F 100% 30.05 in 0.8 mi North 8.1 mph - N/A   Overcast
6:19 AM 34.0 °F 28.8 °F 34.0 °F 100% 30.03 in 0.2 mi Variable 5.8 mph - N/A Fog Fog
6:56 AM 36.0 °F 32.1 °F 36.0 °F 100% 30.06 in 0.2 mi Variable 4.6 mph - N/A Fog Fog
7:17 AM 35.1 °F 31.0 °F 35.1 °F 100% 30.04 in 0.8 mi Variable 4.6 mph - N/A   Overcast
7:23 AM 35.1 °F 29.3 °F 35.1 °F 100% 30.04 in 1.8 mi North 6.9 mph - N/A   Mostly Cloudy
7:26 AM 35.1 °F 29.3 °F 35.1 °F 100% 30.04 in 3.0 mi Variable 6.9 mph - N/A   Mostly Cloudy
7:38 AM 35.1 °F 31.0 °F 35.1 °F 100% 30.04 in 10.0 mi NNE 4.6 mph - N/A   Scattered Clouds
7:56 AM 36.0 °F 33.3 °F 35.1 °F 97% 30.07 in 10.0 mi Variable 3.5 mph - N/A   Partly Cloudy
8:56 AM 37.9 °F 34.4 °F 35.1 °F 89% 30.08 in 10.0 mi Variable 4.6 mph - N/A   Mostly Cloudy
9:56 AM 39.0 °F - 36.0 °F 89% 30.08 in 10.0 mi Calm Calm - N/A   Overcast
10:56 AM 42.1 °F 40.2 °F 37.0 °F 82% 30.08 in 10.0 mi Variable 3.5 mph - N/A   Overcast
11:02 AM 43.0 °F 40.3 °F 37.0 °F 80% 30.05 in 10.0 mi Variable 4.6 mph - N/A   Overcast
11:12 AM 41.0 °F 39.0 °F 36.0 °F 82% 30.05 in 10.0 mi North 3.5 mph - N/A   Mostly Cloudy
11:24 AM 44.1 °F 41.5 °F 36.0 °F 73% 30.05 in 10.0 mi NNW 4.6 mph - N/A   Mostly Cloudy
11:56 AM 44.1 °F 42.5 °F 35.1 °F 71% 30.07 in 10.0 mi Variable 3.5 mph - N/A   Mostly Cloudy
12:43 PM 48.0 °F - 37.0 °F 66% 30.04 in 10.0 mi Variable 3.5 mph - N/A   Mostly Cloudy
12:56 PM 46.9 °F - 37.0 °F 68% 30.06 in 10.0 mi Calm Calm - N/A   Mostly Cloudy
1:56 PM 48.9 °F - 34.0 °F 56% 30.04 in 10.0 mi Variable 3.5 mph - N/A   Scattered Clouds
2:56 PM 48.0 °F - 35.1 °F 61% 30.04 in 10.0 mi Variable 3.5 mph - N/A   Mostly Cloudy
3:56 PM 48.9 °F - 36.0 °F 61% 30.03 in 10.0 mi Variable 3.5 mph - N/A   Overcast
4:25 PM 48.0 °F - 39.0 °F 71% 30.02 in 10.0 mi Calm Calm - N/A   Overcast
4:56 PM 48.0 °F - 39.9 °F 74% 30.04 in 10.0 mi Variable 4.6 mph - N/A   Overcast
5:17 PM 46.0 °F - 39.0 °F 76% 30.01 in 10.0 mi Calm Calm - 0.00 in   Mostly Cloudy
5:56 PM 46.9 °F - 39.9 °F 77% 30.03 in 10.0 mi North 9.2 mph - 0.00 in   Overcast
6:56 PM 46.0 °F 44.8 °F 37.9 °F 73% 30.02 in 10.0 mi Variable 3.5 mph - N/A   Partly Cloudy
7:56 PM 42.1 °F 37.7 °F 37.9 °F 85% 30.03 in 10.0 mi NNW 6.9 mph - N/A   Clear
8:56 PM 39.9 °F 35.1 °F 37.0 °F 89% 30.02 in 10.0 mi NNW 6.9 mph - N/A   Clear
9:56 PM 39.0 °F 32.3 °F 35.1 °F 86% 30.03 in 10.0 mi NNW 10.4 mph 18.4 mph N/A   Clear
11:56 PM 36.0 °F 29.6 °F 34.0 °F 93% 30.03 in 10.0 mi North 8.1 mph - N/A   Clear